Lille-Lesquin Airport

LFQQ · North, Nord-Passo di Calais-Piccardia, Francia

Storia di METAR LFQQ · Lille-Lesquin Airport

Di seguito sono riportati i METAR degli ultimi giorni. Seleziona un anno per sfogliare i METAR più vecchi, dall'anno 2007 in poi.

9 dicembre 2022

Tempo Codice Tempo metereologico Temp. Vista Base nuvolosa Vento METAR/SPECI
21:00
L
1 °C 1 km - 130° 130° 4 kt METAR LFQQ 092000Z AUTO 13004KT 1200 1000 R26/2200D R08/1300U BR VV/// 01/00 Q1007 TEMPO 0700
21:00
L
1 °C 1 km - 130° 130° 4 kt METAR LFQQ 092000Z AUTO 13004KT 1200 1000 R26/2200D R08/1300U BR VV/// 01/00 Q1007 TEMPO 0700
20:30
L
1 °C 800 m - 100° 100° 4 kt METAR LFQQ 091930Z AUTO 10004KT 070V130 1000 0800 R26/1200U R08/1000N BCFG VV/// 01/01 Q1007 TEMPO 0700
20:00
L
1 °C 600 m - 110° 110° 4 kt METAR LFQQ 091900Z AUTO 11004KT 0800 0600 R26/1000N R08/0750N FG VV/// 01/01 Q1007 TEMPO 0300 FZFG
19:30
L
1 °C 1,8 km 200 ft 130° 130° 4 kt METAR LFQQ 091830Z AUTO 13004KT 1800 BR OVC002 01/00 Q1007 TEMPO 0700 BECMG VV///
19:00
L
1 °C 2,4 km 200 ft 100° 100° 6 kt METAR LFQQ 091800Z AUTO 10006KT 2400 BR BKN002 OVC008 01/00 Q1007 BECMG 0300 FZFG VV///
18:30
I
2 °C 4,1 km 900 ft 110° 110° 3 kt METAR LFQQ 091730Z AUTO 11003KT 4100 BR FEW003 OVC009 02/01 Q1006 BECMG 0300 FZFG VV///
18:00
I
2 °C 5 km 900 ft Var 000° 0 kt METAR LFQQ 091700Z AUTO 00000KT 5000 BR OVC009 02/01 Q1006 TEMPO 0700 BECMG VV///
17:30
I
2 °C 4,9 km 1.000 ft 090° 090° 3 kt METAR LFQQ 091630Z AUTO 09003KT 4900 BR BKN010 OVC042 02/01 Q1006 TEMPO 0700 BECMG VV///
17:00
M
2 °C 5 km 1.000 ft 090° 090° 3 kt METAR LFQQ 091600Z AUTO 09003KT 5000 BR BKN010 OVC042 02/01 Q1006 TEMPO 0700 BECMG VV///
16:30
V
3 °C 9 km 4.300 ft 090° 090° 3 kt METAR LFQQ 091530Z AUTO 09003KT 9000 SCT011 OVC043 03/02 Q1006 TEMPO 0700 BECMG VV///
16:00
V
4 °C 10 km+ 4.400 ft Var Var 2 kt METAR LFQQ 091500Z AUTO VRB02KT 9999 SCT012 SCT025 OVC044 04/02 Q1006 BECMG 0300 FZFG VV///
15:30
V
4 °C 10 km+ 4.400 ft 280° 280° 4 kt METAR LFQQ 091430Z AUTO 28004KT 9999 FEW013 OVC044 04/02 Q1005 BECMG 0300 FZFG VV///
15:00
V
4 °C 10 km+ 4.400 ft 270° 270° 4 kt METAR LFQQ 091400Z AUTO 27004KT 9999 FEW016 SCT021 OVC044 04/02 Q1005 BECMG 0300 FZFG VV///
14:30
V
4 °C 10 km+ 4.600 ft 260° 260° 4 kt METAR LFQQ 091330Z AUTO 26004KT 9999 FEW014 BKN046 04/02 Q1005 BECMG 0300 FZFG VV///
14:00
V
4 °C 10 km+ - 240° 240° 4 kt METAR LFQQ 091300Z AUTO 24004KT 9999 FEW013 SCT048 04/02 Q1005 NOSIG
13:30
V
3 °C 10 km+ 4.700 ft 280° 280° 4 kt METAR LFQQ 091230Z AUTO 28004KT 230V310 9999 BKN047 03/01 Q1006 NOSIG
13:00
V
3 °C 10 km+ - Var Var 3 kt METAR LFQQ 091200Z AUTO VRB03KT CAVOK 03/01 Q1006 NOSIG
12:30
V
2 °C 10 km+ - Var Var 2 kt METAR LFQQ 091130Z AUTO VRB02KT CAVOK 02/01 Q1006 NOSIG
12:00
M
1 °C 6 km 4.700 ft 240° 240° 3 kt METAR LFQQ 091100Z AUTO 24003KT 6000 BKN047 BKN054 01/01 Q1006 NOSIG
11:30
M
0 °C 5 km 4.800 ft Var Var 2 kt METAR LFQQ 091030Z AUTO VRB02KT 5000 BR FEW026 BKN048 00/M00 Q1006 NOSIG
11:00
M
0 °C 5 km - Var Var 2 kt METAR LFQQ 091000Z AUTO VRB02KT 5000 BR NSC 00/M00 Q1006 NOSIG
10:30
M
-1 °C 5 km 5.200 ft 240° 240° 1 kt METAR LFQQ 090930Z AUTO 24001KT 5000 BR FEW016 OVC052 M01/M01 Q1006 NOSIG
10:00
M
-2 °C 5 km 5.200 ft 090° 090° 3 kt METAR LFQQ 090900Z AUTO 09003KT 050V170 5000 BR FEW003 OVC052 M02/M02 Q1006 NOSIG
09:30
M
-3 °C 6 km - 160° 160° 2 kt METAR LFQQ 090830Z AUTO 16002KT 6000 NSC M03/M03 Q1006 NOSIG
09:00
M
-3 °C 6 km - 240° 240° 1 kt METAR LFQQ 090800Z AUTO 24001KT 6000 FEW039 SCT054 M03/M03 Q1006 TEMPO 0300 FZFG VV///
08:30
M
-2 °C 7 km - Var 000° 0 kt METAR LFQQ 090730Z AUTO 00000KT 7000 NSC M02/M03 Q1006 TEMPO 0300 FZFG VV///
08:00
V
-2 °C 8 km - 080° 080° 3 kt METAR LFQQ 090700Z AUTO 08003KT 8000 NSC M02/M03 Q1006 TEMPO 0300 FZFG VV///
07:30
V
-2 °C 8 km 5.800 ft Var 000° 0 kt METAR LFQQ 090630Z AUTO 00000KT 8000 FEW024 OVC058 M02/M03 Q1006 TEMPO 0300 FZFG VV///
07:00
M
-2 °C 7 km 3.500 ft 360° 360° 2 kt METAR LFQQ 090600Z AUTO 36002KT 7000 BKN035 OVC058 M02/M03 Q1006 TEMPO 0300 FZFG VV///
06:30
M
-3 °C 7 km 4.500 ft 210° 210° 2 kt METAR LFQQ 090530Z AUTO 21002KT 7000 FEW031 SCT037 BKN045 M03/M03 Q1006 BECMG 0300 FZFG VV///
06:00
M
-3 °C 6 km 6.400 ft 120° 120° 2 kt METAR LFQQ 090500Z AUTO 12002KT 6000 FEW031 BKN064 M03/M04 Q1006 BECMG 0300 FZFG VV///
05:30
I
-3 °C 3,7 km - Var Var 2 kt METAR LFQQ 090430Z AUTO VRB02KT 3700 BR NSC M03/M04 Q1006 BECMG 0300 FZFG VV///
05:00
L
-4 °C 1,4 km - Var 000° 0 kt METAR LFQQ 090400Z AUTO 00000KT 4600 1400 R26/2700D R08/4900U BR FEW038 M04/M04 Q1006 BECMG 0300 FZFG VV///
04:30
I
-3 °C 3,8 km - 010° 010° 2 kt METAR LFQQ 090330Z AUTO 01002KT 3800 BR SCT035 M03/M04 Q1006 BECMG 0300 FZFG VV///
04:00
I
-4 °C 4,1 km - 150° 150° 2 kt METAR LFQQ 090300Z AUTO 15002KT 4100 BR FEW031 M04/M04 Q1006 BECMG 0300 FZFG VV///
03:30
M
-3 °C 5 km - Var 000° 0 kt METAR LFQQ 090230Z AUTO 00000KT 5000 BR SCT034 M03/M04 Q1007 BECMG 0300 FZFG VV///
03:00
I
-3 °C 4,7 km - 160° 160° 3 kt METAR LFQQ 090200Z AUTO 16003KT 4700 BR NSC M03/M03 Q1007 BECMG 0300 FZFG VV///
02:30
M
-3 °C 5 km - 140° 140° 2 kt METAR LFQQ 090130Z AUTO 14002KT 5000 BR NSC M03/M03 Q1007 BECMG 0300 FZFG VV///
02:00
M
-2 °C 5 km - 150° 150° 4 kt METAR LFQQ 090100Z AUTO 15004KT 5000 BR NSC M02/M03 Q1007 BECMG 0300 FZFG VV///
01:30
M
-2 °C 5 km - Var Var 2 kt METAR LFQQ 090030Z AUTO VRB02KT 5000 BR NSC M02/M02 Q1007 BECMG 0300 FZFG VV///
01:00
I
-2 °C 3,8 km - Var Var 1 kt METAR LFQQ 090000Z AUTO VRB01KT 3800 BR NSC M02/M03 Q1007 BECMG 0300 FZFG VV///
00:30
L
-3 °C 750 m - Var 000° 0 kt METAR LFQQ 082330Z AUTO 00000KT 3000 0750 R26/1000U R08/4300U BCFG FEW030 SCT054 M03/M03 Q1007 BECMG 0300 FZFG VV///
00:00
M
-2 °C 5 km - Var Var 1 kt METAR LFQQ 082300Z AUTO VRB01KT 5000 BR NSC M02/M03 Q1008 NOSIG

8 dicembre 2022

Tempo Codice Tempo metereologico Temp. Vista Base nuvolosa Vento METAR/SPECI
23:30
M
-2 °C 5 km - 160° 160° 4 kt METAR LFQQ 082230Z AUTO 16004KT 5000 BR NSC M02/M02 Q1008 NOSIG
23:00
M
-2 °C 7 km - 240° 240° 3 kt METAR LFQQ 082200Z AUTO 24003KT 7000 NSC M02/M03 Q1008 BECMG 4000 BR
22:30
V
-1 °C 9 km - 260° 260° 5 kt METAR LFQQ 082130Z AUTO 26005KT 9000 NSC M01/M02 Q1008 BECMG 4000 BR
22:00
V
0 °C 9 km - 240° 240° 5 kt METAR LFQQ 082100Z AUTO 24005KT 9000 NSC M00/M02 Q1008 NOSIG
21:30
V
0 °C 10 km+ - 230° 230° 4 kt METAR LFQQ 082030Z AUTO 23004KT CAVOK 00/M01 Q1008 NOSIG
21:00
V
1 °C 10 km+ - 200° 200° 3 kt METAR LFQQ 082000Z AUTO 20003KT CAVOK 01/M01 Q1008 NOSIG
20:30
V
1 °C 10 km+ - 240° 240° 6 kt METAR LFQQ 081930Z AUTO 24006KT CAVOK 01/M00 Q1008 NOSIG
20:00
V
1 °C 10 km+ - 250° 250° 5 kt METAR LFQQ 081900Z AUTO 25005KT CAVOK 01/M01 Q1008 NOSIG
19:30
V
1 °C 10 km+ 3.700 ft 260° 260° 6 kt METAR LFQQ 081830Z AUTO 26006KT 9999 FEW025 SCT031 BKN037 01/M00 Q1008 NOSIG
19:00
V
1 °C 10 km+ 5.600 ft 250° 250° 5 kt METAR LFQQ 081800Z AUTO 25005KT 9999 SCT032 BKN056 01/M00 Q1008 NOSIG
18:30
V
3 °C 10 km+ 5.600 ft 220° 220° 4 kt METAR LFQQ 081730Z AUTO 22004KT 9999 FEW022 SCT032 BKN056 03/01 Q1008 NOSIG
18:00
M
3 °C 10 km+ 2.400 ft 240° 240° 3 kt METAR LFQQ 081700Z AUTO 24003KT 9999 BKN024 03/01 Q1008 TEMPO 4000 SHRA BKN020TCU
17:30
V
3 °C 10 km+ - 240° 240° 5 kt METAR LFQQ 081630Z AUTO 24005KT 9999 FEW028 SCT060 03/00 Q1008 TEMPO 4000 SHRA BKN020TCU
17:00
V
4 °C 10 km+ 5.800 ft 240° 240° 5 kt METAR LFQQ 081600Z AUTO 24005KT 9999 FEW044 BKN058 04/01 Q1008 TEMPO 4000 SHRA BKN020TCU
16:30
V
4 °C 10 km+ 5.600 ft 250° 250° 6 kt METAR LFQQ 081530Z AUTO 25006KT 9999 SCT034 SCT048 OVC056 04/01 Q1008 TEMPO 4000 SHRA BKN020TCU
16:00
V
5 °C 10 km+ 5.400 ft 260° 260° 6 kt METAR LFQQ 081500Z AUTO 26006KT 9999 FEW039 OVC054 05/01 Q1008 TEMPO 4000 SHRA BKN020TCU
15:30
V
5 °C 10 km+ - 280° 280° 8 kt METAR LFQQ 081430Z AUTO 28008KT CAVOK 05/00 Q1008 TEMPO 4000 SHRA BKN020TCU
15:00
V
5 °C 10 km+ - 270° 270° 7 kt METAR LFQQ 081400Z AUTO 27007KT CAVOK 05/00 Q1008 TEMPO 4000 SHRA BKN020TCU
14:30
V
5 °C 10 km+ - 270° 270° 8 kt METAR LFQQ 081330Z AUTO 27008KT CAVOK 05/01 Q1009 TEMPO 4000 SHRA BKN020TCU
14:00
V
5 °C 10 km+ - 280° 280° 8 kt METAR LFQQ 081300Z AUTO 28008KT 230V300 9999 FEW020 05/01 Q1009 NOSIG
13:30
V
5 °C 10 km+ - 270° 270° 8 kt METAR LFQQ 081230Z AUTO 27008KT 9999 FEW018 05/01 Q1009 NOSIG
13:00
V
5 °C 10 km+ - 270° 270° 8 kt METAR LFQQ 081200Z AUTO 27008KT CAVOK 05/01 Q1009 NOSIG
12:30
V
5 °C 10 km+ - 270° 270° 9 kt METAR LFQQ 081130Z AUTO 27009KT CAVOK 05/02 Q1009 NOSIG
12:00
V
4 °C 9 km - 260° 260° 8 kt METAR LFQQ 081100Z AUTO 26008KT 9000 NSC 04/02 Q1010 NOSIG
11:30
V
4 °C 9 km - 240° 240° 8 kt METAR LFQQ 081030Z AUTO 24008KT 9000 FEW006 04/01 Q1010 NOSIG
11:00
V
3 °C 8 km - 240° 240° 8 kt METAR LFQQ 081000Z AUTO 24008KT 8000 NSC 03/01 Q1010 NOSIG
10:30
V
2 °C 10 km+ - 240° 240° 6 kt METAR LFQQ 080930Z AUTO 24006KT CAVOK 02/01 Q1010 NOSIG
10:00
V
1 °C 8 km - 240° 240° 6 kt METAR LFQQ 080900Z AUTO 24006KT 8000 NSC 01/00 Q1010 NOSIG
09:30
V
2 °C 9 km - 230° 230° 6 kt METAR LFQQ 080830Z AUTO 23006KT 9000 NSC 02/01 Q1010 NOSIG
09:00
V
1 °C 9 km - 220° 220° 7 kt METAR LFQQ 080800Z AUTO 22007KT 9000 NSC 01/01 Q1011 NOSIG
08:30
V
1 °C 9 km - 240° 240° 6 kt METAR LFQQ 080730Z AUTO 24006KT 9000 NSC 01/00 Q1011 NOSIG
08:00
V
1 °C 10 km+ - 240° 240° 6 kt METAR LFQQ 080700Z AUTO 24006KT CAVOK 01/00 Q1011 NOSIG
07:30
V
1 °C 10 km+ - 240° 240° 6 kt METAR LFQQ 080630Z AUTO 24006KT CAVOK 01/M00 Q1011 NOSIG
07:00
V
1 °C 8 km - 220° 220° 6 kt METAR LFQQ 080600Z AUTO 22006KT 8000 NSC 01/00 Q1011 NOSIG
06:30
M
0 °C 7 km - 240° 240° 3 kt METAR LFQQ 080530Z AUTO 24003KT 7000 NSC 00/M00 Q1011 TEMPO 0500 FZFG BKN003
06:00
M
0 °C 7 km 6.400 ft 260° 260° 3 kt METAR LFQQ 080500Z AUTO 26003KT 7000 SCT035 BKN064 00/M00 Q1011 TEMPO 0500 FZFG BKN003
05:30
M
1 °C 7 km 6.200 ft 260° 260° 6 kt METAR LFQQ 080430Z AUTO 26006KT 7000 SCT035 SCT052 BKN062 01/01 Q1011 TEMPO 0500 FZFG BKN003
05:00
M
1 °C 7 km 6.400 ft 250° 250° 5 kt METAR LFQQ 080400Z AUTO 25005KT 7000 FEW037 OVC064 01/01 Q1012 TEMPO 0500 FZFG BKN003
04:30
M
1 °C 6 km 6.200 ft 230° 230° 6 kt METAR LFQQ 080330Z AUTO 23006KT 6000 FEW029 OVC062 01/01 Q1012 TEMPO 0500 FZFG BKN003
04:00
V
2 °C 8 km 3.600 ft 260° 260° 6 kt METAR LFQQ 080300Z AUTO 26006KT 8000 FEW022 BKN036 OVC066 02/01 Q1012 TEMPO 2000 BR BKN003
03:30
M
1 °C 7 km 3.800 ft 250° 250° 4 kt METAR LFQQ 080230Z AUTO 25004KT 7000 FEW024 BKN038 OVC066 01/01 Q1013 TEMPO 2000 BR BKN003
03:00
M
0 °C 7 km 6.400 ft 260° 260° 6 kt METAR LFQQ 080200Z AUTO 26006KT 7000 FEW035 BKN064 00/00 Q1013 TEMPO 2000 BR BKN003
02:30
M
0 °C 5 km 11.000 ft 240° 240° 6 kt METAR LFQQ 080130Z AUTO 24006KT 5000 BR FEW035 SCT064 BKN110 00/M00 Q1013 TEMPO 2000 BR BKN003
02:00
M
1 °C 5 km - 240° 240° 4 kt METAR LFQQ 080100Z AUTO 24004KT 5000 BR NSC 01/00 Q1013 TEMPO 2000 BR BKN003
01:30
M
1 °C 6 km - 240° 240° 6 kt METAR LFQQ 080030Z AUTO 24006KT 6000 NSC 01/00 Q1013 TEMPO 2000 BR BKN003
01:00
M
1 °C 6 km - 240° 240° 5 kt METAR LFQQ 080000Z AUTO 24005KT 6000 NSC 01/01 Q1014 TEMPO 2000 BR BKN003
00:30
M
1 °C 6 km - 250° 250° 6 kt METAR LFQQ 072330Z AUTO 25006KT 6000 NSC 01/00 Q1014 TEMPO 2000 BR BKN003
00:00
M
2 °C 7 km 6.600 ft 240° 240° 7 kt METAR LFQQ 072300Z AUTO 24007KT 7000 FEW034 BKN066 02/01 Q1014 TEMPO 4000 SHRA FEW005 BKN012 BKN020TCU

7 dicembre 2022

Tempo Codice Tempo metereologico Temp. Vista Base nuvolosa Vento METAR/SPECI
23:30
V
2 °C 10 km+ 3.400 ft 260° 260° 7 kt METAR LFQQ 072230Z AUTO 26007KT 9999 BKN034 BKN040 BKN062 02/02 Q1014 TEMPO 4000 SHRA FEW005 BKN012 BKN020TCU
23:00
V
2 °C 10 km+ 3.300 ft 260° 260° 7 kt METAR LFQQ 072200Z AUTO 26007KT 9999 SCT020 BKN033 BKN056 02/02 Q1015 TEMPO 4000 SHRA FEW005 BKN012 BKN020TCU
22:30
M
2 °C 9 km 2.700 ft 260° 260° 8 kt METAR LFQQ 072130Z AUTO 26008KT 9000 SCT019 BKN027 BKN035 02/01 Q1015 TEMPO 4000 SHRA FEW005 BKN012 BKN020TCU
22:00
V
1 °C 9 km 4.400 ft 260° 260° 8 kt METAR LFQQ 072100Z AUTO 26008KT 9000 SCT036 BKN044 BKN066 01/01 Q1015 TEMPO 4000 SHRA FEW005 BKN012 BKN020TCU
21:30
V
1 °C 8 km - 270° 270° 7 kt METAR LFQQ 072030Z AUTO 27007KT 8000 FEW024 SCT160 01/00 Q1015 TEMPO 4000 SHRA FEW005 BKN012 BKN020TCU
21:00
M
1 °C 7 km 17.000 ft 250° 250° 6 kt METAR LFQQ 072000Z AUTO 25006KT 7000 FEW024 BKN170 01/00 Q1016 TEMPO 4000 SHRA FEW005 BKN012 BKN020TCU
20:30
M
1 °C 6 km - 240° 240° 6 kt METAR LFQQ 071930Z AUTO 24006KT 6000 NSC 01/00 Q1016 TEMPO 4000 SHRA FEW005 BKN012 BKN020TCU
20:00
M
2 °C 5 km - 260° 260° 7 kt METAR LFQQ 071900Z AUTO 26007KT 5000 BR NSC 02/01 Q1016 TEMPO SHRA FEW005 BKN012 BKN020TCU
19:30
V
2 °C 10 km+ - 260° 260° 6 kt METAR LFQQ 071830Z AUTO 26006KT CAVOK 02/01 Q1016 TEMPO 4000 SHRA FEW005 BKN012 BKN020TCU
19:00
V
2 °C 10 km+ - 280° 280° 6 kt METAR LFQQ 071800Z AUTO 28006KT 9999 FEW037 02/02 Q1016 TEMPO 4000 SHRA FEW005 BKN012 BKN020TCU
18:30
V
3 °C 10 km+ - 270° 270° 6 kt METAR LFQQ 071730Z AUTO 27006KT 9999 FEW037 03/02 Q1016 TEMPO 4000 -SHRA BKN012 BKN020TCU
18:00
V
3 °C 10 km+ - 270° 270° 8 kt METAR LFQQ 071700Z AUTO 27008KT CAVOK 03/02 Q1017 TEMPO 4000 -SHRA BKN012 BKN020TCU
17:30
V
4 °C 10 km+ - 280° 280° 8 kt METAR LFQQ 071630Z AUTO 28008KT 9999 FEW041 04/03 Q1017 TEMPO 4000 -SHRA BKN012 BKN020TCU
17:00
V
4 °C 10 km+ - 260° 260° 6 kt METAR LFQQ 071600Z AUTO 26006KT 9999 FEW037 04/03 Q1017 TEMPO 4000 -SHRA BKN012 BKN020TCU
16:30
V
5 °C 10 km+ - 280° 280° 6 kt METAR LFQQ 071530Z AUTO 28006KT 9999 FEW018 05/03 Q1017 TEMPO 3000 -SHRA BR BKN009 BKN020TCU
16:00
M
6 °C 10 km+ 2.100 ft 280° 280° 7 kt METAR LFQQ 071500Z AUTO 28007KT 9999 SCT016 BKN021 06/03 Q1017 TEMPO 3000 -SHRA BR BKN009 BKN020TCU
15:30
M
7 °C 10 km+ 1.700 ft 310° 310° 6 kt METAR LFQQ 071430Z AUTO 31006KT 280V010 9999 BKN017 BKN023 BKN030 07/04 Q1017 TEMPO 3000 -SHRA BR BKN009 BKN020TCU
15:00
V
7 °C 10 km+ 6.400 ft 310° 310° 8 kt METAR LFQQ 071400Z AUTO 31008KT 9999 FEW016 SCT025 OVC064 07/04 Q1017 TEMPO 3000 -SHRA BR BKN009 BKN020TCU
14:30
M
6 °C 10 km+ 1.600 ft 270° 270° 5 kt METAR LFQQ 071330Z AUTO 27005KT 9999 BKN016 BKN022 BKN037 06/05 Q1018 TEMPO 3000 -SHRA BR BKN009 BKN020TCU
14:00
V
7 °C 10 km+ 3.100 ft 300° 300° 8 kt METAR LFQQ 071300Z AUTO 30008KT 9999 FEW016 SCT024 BKN031 07/04 Q1018 TEMPO 3000 -SHRA BR BKN009 BKN020TCU
13:30
M
8 °C 10 km+ 1.800 ft 270° 270° 8 kt METAR LFQQ 071230Z AUTO 27008KT 9999 SCT013 BKN018 BKN032 08/05 Q1018 TEMPO 3000 -SHRA BR BKN009 BKN020TCU
13:00
V
6 °C 10 km+ 4.700 ft 270° 270° 7 kt METAR LFQQ 071200Z AUTO 27007KT 9999 FEW011 SCT031 BKN047 06/05 Q1018 TEMPO 3000 -SHRA BR BKN013 BKN020TCU
12:30
M
6 °C 10 km+ 2.500 ft 280° 280° 5 kt METAR LFQQ 071130Z AUTO 28005KT 9999 FEW011 SCT019 BKN025 06/05 Q1019 TEMPO 3000 -SHRA BR BKN013 BKN020TCU
12:00
V
6 °C 10 km+ 4.000 ft 270° 270° 4 kt METAR LFQQ 071100Z AUTO 27004KT 9999 FEW025 SCT034 BKN040 06/04 Q1019 TEMPO 3000 -SHRA BR BKN013 BKN020TCU
11:30
V
6 °C 10 km+ 3.100 ft 330° 330° 5 kt METAR LFQQ 071030Z AUTO 33005KT 280V360 9999 -RADZ FEW011 SCT026 BKN031 06/05 Q1019 TEMPO 3000 -SHRA BR BKN013 BKN020TCU
11:00
V
6 °C 10 km+ 3.200 ft 290° 290° 7 kt METAR LFQQ 071000Z AUTO 29007KT 9999 -RA SCT016 BKN032 BKN038 06/05 Q1020 TEMPO 3000 -SHRA BR BKN013 BKN020TCU

Noi e le terze parti seguiamo il tuo comportamento su internet con i cookie. Se continui, riteniamo che tu sia d'accordo con la nostra Politica sui cookie.